Rock Springs, WY

7:07 PM MDT on March 26, 2017 (GMT -0600)
Rock Springs-Sweetwater

Weather History for KRKS - December, 2013

Change the Weather History Date:

Saturday, December 14, 2013

  Actual Average Record
Temperature  
Mean Temperature 21 °F 21 °F  
Max Temperature 28 °F 29 °F 52 °F (1977)
Min Temperature 14 °F 12 °F -10 °F (2008)
Degree Days  
Heating Degree Days 44 44  
Month to date heating degree days 745 603  
Since 1 July heating degree days 2653 2596  
Cooling Degree Days 0 0  
Month to date cooling degree days 0 0  
Year to date cooling degree days 517 286  
Moisture  
Dew Point 16 °F    
Average Humidity 78    
Maximum Humidity 88    
Minimum Humidity 68    
Precipitation  
Precipitation 0.00 in 0.02 in 0.11 in (1975)
Month to date precipitation 0.10 0.24  
Year to date precipitation 4.56 8.30  
Sea Level Pressure  
Sea Level Pressure 30.48 in    
Wind  
Wind Speed 23 mph (WSW)    
Max Wind Speed 37 mph    
Max Gust Speed 43 mph    
Visibility 10 miles    
Events      
T = Trace of Precipitation, MM = Missing Value Source: NWS Daily Summary

Daily Weather History Graph

Daily Weather History Graph

Search for Another Location

Airport or City:

Trip Planner

Search our weather history database for the weather conditions in past years. The results will help you decide how hot, cold, wet, or windy it might be!

Date:

Astronomy

Dec. 14, 2013 Rise Set
Actual Time 7:35 AM MST 4:46 PM MST
Civil Twilight 7:04 AM MST 5:18 PM MST
Nautical Twilight 6:29 AM MST 5:53 PM MST
Astronomical Twilight 5:55 AM MST 6:26 PM MST
Moon 3:12 PM MST (12/14) 4:57 AM MST (12/14)
Length of Visible Light 10h 14m
Length of Day
9h 11m
Waxing Gibbous, 94% of the Moon is Illuminated
Dec 14
Waxing Gibbous
Dec 17
Full
Dec 25
Last Quarter
Jan 1
New
Jan 7
First Quarter

Hourly Weather History & Observations

Time (MST) Temp. Windchill Dew Point Humidity Pressure Visibility Wind Dir Wind Speed Gust Speed Precip Events Conditions
12:54 AM 16.0 °F 2.9 °F 12.0 °F 84% 30.42 in 10.0 mi SW 11.5 mph - N/A   Clear
1:54 AM 16.0 °F 1.1 °F 10.9 °F 81% 30.41 in 10.0 mi WSW 15.0 mph - N/A   Clear
2:54 AM 16.0 °F 2.9 °F 12.0 °F 84% 30.44 in 10.0 mi SW 11.5 mph - N/A   Clear
3:54 AM 17.1 °F 3.0 °F 12.0 °F 81% 30.45 in 10.0 mi WSW 13.8 mph - N/A   Clear
4:54 AM 15.1 °F 0.5 °F 10.9 °F 84% 30.47 in 10.0 mi WSW 13.8 mph - N/A   Clear
5:54 AM 15.1 °F 1.1 °F 10.0 °F 80% 30.50 in 10.0 mi WSW 12.7 mph - N/A   Clear
6:54 AM 16.0 °F -0.4 °F 10.9 °F 81% 30.51 in 10.0 mi West 18.4 mph - N/A   Clear
7:54 AM 17.1 °F -0.3 °F 12.9 °F 84% 30.51 in 10.0 mi WSW 21.9 mph - N/A   Clear
8:54 AM 19.0 °F 1.3 °F 14.0 °F 81% 30.52 in 10.0 mi West 25.3 mph - N/A   Clear
9:54 AM 21.0 °F 3.3 °F 16.0 °F 81% 30.53 in 10.0 mi WSW 27.6 mph - N/A   Clear
10:51 AM 24.8 °F 10.0 °F 17.6 °F 74% 30.36 in 10.0 mi SW 21.9 mph - N/A   Mostly Cloudy
10:54 AM 24.1 °F 8.0 °F 18.0 °F 77% 30.53 in 10.0 mi SW 25.3 mph - N/A   Mostly Cloudy
11:54 AM 24.1 °F 7.4 °F 18.0 °F 77% 30.51 in 10.0 mi WSW 27.6 mph 35.7 mph N/A   Mostly Cloudy
12:05 PM 24.1 °F 6.9 °F 18.0 °F 77% 30.34 in 10.0 mi WSW 29.9 mph - N/A   Mostly Cloudy
12:54 PM 24.1 °F 8.0 °F 19.0 °F 81% 30.51 in 10.0 mi WSW 25.3 mph - N/A   Overcast
1:44 PM 27.0 °F 10.3 °F 19.9 °F 75% 30.33 in 10.0 mi West 32.2 mph 41.4 mph N/A   Scattered Clouds
1:54 PM 26.1 °F 10.7 °F 19.0 °F 75% 30.48 in 10.0 mi WSW 25.3 mph 32.2 mph N/A   Scattered Clouds
2:54 PM 27.0 °F 10.8 °F 19.9 °F 75% 30.45 in 10.0 mi West 29.9 mph 39.1 mph N/A   Clear
3:54 PM 27.0 °F 10.5 °F 19.0 °F 72% 30.48 in 10.0 mi West 31.1 mph 36.8 mph N/A   Clear
4:54 PM 26.1 °F 14.5 °F 19.0 °F 75% 30.48 in 10.0 mi SW 13.8 mph 29.9 mph N/A   Mostly Cloudy
5:54 PM 26.1 °F 11.0 °F 19.0 °F 75% 30.53 in 10.0 mi WSW 24.2 mph 40.3 mph N/A   Overcast
6:54 PM 25.0 °F 8.6 °F 19.0 °F 78% 30.54 in 10.0 mi West 27.6 mph 35.7 mph N/A   Overcast
7:54 PM 25.0 °F 9.2 °F 19.0 °F 78% 30.54 in 10.0 mi West 25.3 mph 35.7 mph N/A   Overcast
8:54 PM 24.1 °F 7.1 °F 18.0 °F 77% 30.53 in 10.0 mi WSW 28.8 mph - N/A   Overcast
9:54 PM 26.1 °F 9.6 °F 17.1 °F 69% 30.50 in 10.0 mi West 29.9 mph 38.0 mph N/A   Overcast
10:54 PM 26.1 °F 8.8 °F 18.0 °F 71% 30.47 in 10.0 mi West 33.4 mph - N/A   Overcast
11:54 PM 25.0 °F 8.9 °F 18.0 °F 75% 30.49 in 10.0 mi WSW 26.5 mph 36.8 mph N/A   Scattered Clouds